BREEZE M DEB (TANK) - Orbit

View from above orbital plane
View from above orbital plane
View from above satellite
View from above satellite

Ground track
Ground track

The orbit data is extracted from the following two-line orbital elements,

1 33437U 08057B   13138.83975181  .00004786  00000-0  11156-2 0  8482
2 33437 049.5571 072.0547 5042340 079.9816 348.7609 05.52254289 90790
Epoch (UTC): 18 May 2013 20:09:14
Eccentricity: 0.5042340
inclination: 49.5571°
perigee height: 324 km
apogee height: 13959 km
right ascension of ascending node: 72.0547°
argument of perigee: 79.9816°
revolutions per day: 5.52254289
mean anomaly at epoch: 348.7609°
orbit number at epoch: 9079

The dashed part of the orbit path shows where the satellite is in the earth's shadow,  

Developed and maintained by Chris Peat, Heavens-Above GmbH. Please read the updated FAQ before sending e-mail. Imprint. DLR